Temp
62 61 61 61 61 61 61 61 61 62 62 63 63 63 63 63 64 81 84 79 80 73 73 89 95 95 95 91 92 94 77 76 80 81 82 89 84 90 92 87 89 91 91 92 95
61 61 61 61 61 61 61 61 61 62 62 62 63 63 63 62 80 86 77 77 75 74 84 90 90 91 88 89 89 84 79 79 84 84 81 85 84 85 83 85 86 88 92 94 94
61 61 61 60 61 60 60 61 61 62 62 62 62 62 62 66 81 83 77 78 75 77 89 95 93 91 87 90 88 86 78 83 85 82 84 82 83 86 82 79 85 82 86 89 89
60 60 60 60 60 60 60 60 61 62 62 62 62 62 63 81 71 86 79 78 76 85 89 93 90 86 84 82 87 78 86 83 85 84 82 80 84 81 84 84 89 88 88 88 87
60 60 59 59 59 60 60 60 60 61 61 62 63 63 79 80 83 91 80 81 89 94 91 89 87 86 81 84 83 80 84 84 85 84 84 84 80 81 83 89 90 89 88 87 88
59 59 59 59 59 59 59 59 59 60 61 63 64 61 80 73 96 96 94 95 94 93 89 90 87 87 82 82 80 84 82 83 84 84 84 80 80 82 84 89 86 87 86 87 87
59 59 59 59 59 59 59 59 59 60 62 64 66 80 80 81 97 97 96 93 94 91 87 90 89 85 86 80 87 82 76 80 82 83 80 82 74 78 86 87 84 84 85 86 86
59 59 58 59 59 59 59 59 60 62 64 66 66 82 76 96 98 95 97 93 95 94 90 91 91 85 82 86 81 76 77 70 82 82 81 77 66 80 86 84 82 83 83 84 83
59 58 58 59 59 59 58 58 62 66 66 67 79 81 77 85 88 94 94 89 91 91 91 90 87 81 83 73 71 75 67 71 76 84 80 75 69 80 86 83 80 81 82 81 81
58 58 57 58 59 58 57 58 65 67 73 87 88 78 85 83 90 91 94 90 86 86 84 82 81 74 76 73 62 67 69 73 71 78 79 73 72 79 83 82 80 80 80 79 78
58 57 57 58 58 58 66 82 77 75 80 78 82 80 85 90 91 88 92 87 86 81 72 80 72 68 74 77 73 70 68 66 72 78 74 72 71 75 80 80 79 79 77 76 76
57 57 57 58 58 57 65 80 85 85 73 85 85 86 91 90 80 85 90 78 78 70 78 74 67 76 77 73 70 69 65 66 72 77 73 70 69 74 78 79 80 78 76 75 76
56 56 57 57 58 67 82 86 93 91 73 79 86 85 86 87 79 82 85 81 75 71 73 69 75 76 71 70 67 68 64 66 66 70 71 68 65 71 78 80 78 77 77 76 75
56 56 57 56 67 85 85 91 95 91 64 72 78 85 87 86 76 89 86 79 75 70 74 73 79 74 70 68 70 62 73 68 65 62 55 71 54 67 73 71 73 75 75 76 75
56 56 56 55 74 80 88 94 93 84 48 78 79 93 88 78 78 78 87 78 68 71 70 68 72 69 66 69 72 66 71 66 64 60 60 62 59 65 75 68 69 74 76 75 75
56 56 56 75 77 85 94 92 84 62 50 71 78 75 75 78 78 79 76 80 79 71 73 71 80 72 70 73 71 71 66 64 65 62 50 61 61 64 70 71 73 74 74 73 73
55 55 57 74 77 91 92 82 60 52 76 70 70 74 73 72 73 75 70 68 64 58 60 68 70 75 73 65 70 67 59 48 49 50 49 67 62 65 73 75 74 71 71 71 73
53 53 70 83 88 89 83 67 49 64 68 79 75 74 68 73 73 72 69 64 72 69 63 59 58 69 72 65 64 65 62 50 39 45 54 63 55 66 72 73 71 71 70 72 73
52 77 80 87 90 86 72 55 57 64 72 71 74 66 66 71 71 71 68 66 70 72 58 59 62 74 72 71 68 63 56 64 51 53 48 56 65 72 69 68 69 70 71 70 71
61 71 80 88 86 78 64 54 63 73 74 73 63 68 62 66 67 67 65 71 69 74 73 64 53 68 69 69 69 63 67 50 51 39 42 56 58 59 63 66 68 68 69 69 71
64 68 82 87 84 70 56 60 67 75 75 68 65 63 65 64 66 66 66 71 74 71 70 65 57 61 66 59 59 58 55 56 56 51 43 42 53 67 66 66 65 68 70 69 69
66 60 83 83 63 66 60 66 64 70 74 71 71 68 64 65 62 62 63 68 75 72 61 64 58 49 58 68 69 67 61 59 44 44 50 49 49 69 68 68 69 68 70 70 69
59 63 79 78 55 59 64 66 69 67 68 68 66 69 69 63 52 61 64 74 75 68 62 64 52 44 51 59 65 58 61 60 59 53 45 39 48 68 68 68 69 69 69 69 68
59 55 66 70 69 61 59 59 58 68 65 69 66 67 63 61 64 58 62 70 72 69 63 62 55 50 46 55 60 55 58 60 56 44 47 48 52 60 64 65 68 69 68 68 67
60 56 61 53 57 58 58 56 53 53 63 65 61 55 57 46 56 57 62 65 69 64 63 59 48 53 56 59 60 59 59 60 56 57 48 52 53 59 64 66 67 68 68 66 64
53 55 59 55 55 53 52 52 52 55 57 56 54 52 50 47 49 41 54 59 60 63 60 59 47 52 50 58 59 56 60 61 61 61 60 60 59 69 71 69 67 66 64 61 61
60 62 55 49 50 49 50 52 53 56 57 59 57 48 43 48 50 51 54 55 61 58 56 55 49 45 42 54 55 48 57 60 61 63 62 55 63 68 64 64 64 62 61 60 58
MSLP
1018.05 1017.66 1017.21 1016.75 1016.28 1015.83 1015.44 1015.06 1014.74 1014.39 1014.00 1013.54 1013.17 1013.00 1012.78 1012.42 1011.43 1011.08 1010.10 1010.62 1010.23 1009.89 1009.83 1008.52 1007.00 1006.47 1006.09 1005.21 1004.99 1004.50 1003.96 1002.22 1001.73 1001.33 1002.07 1002.81 1003.65 1004.17 1004.71 1004.92 1005.01 1005.04 1005.19 1005.73 1006.12
1018.20 1017.63 1017.23 1016.78 1016.24 1015.84 1015.57 1015.07 1014.62 1014.22 1013.85 1013.47 1013.14 1012.89 1012.87 1012.65 1011.31 1009.85 1010.67 1010.38 1010.08 1009.85 1009.14 1007.17 1006.09 1005.85 1005.15 1004.63 1004.58 1004.33 1003.29 1002.63 1003.16 1003.27 1003.50 1003.87 1004.47 1004.68 1005.25 1004.95 1004.91 1005.08 1005.78 1006.31 1006.55
1018.37 1017.76 1017.18 1016.72 1016.28 1015.83 1015.34 1014.99 1014.51 1014.03 1013.69 1013.37 1013.08 1012.81 1012.73 1012.49 1010.61 1009.66 1010.37 1010.28 1009.84 1009.42 1008.80 1007.07 1006.36 1005.49 1004.48 1004.26 1003.96 1003.66 1003.46 1003.70 1003.65 1004.76 1004.68 1004.68 1004.87 1005.10 1005.22 1005.07 1005.07 1005.80 1006.30 1006.61 1006.87
1018.56 1017.94 1017.26 1016.72 1016.22 1015.75 1015.36 1014.95 1014.54 1014.09 1013.67 1013.33 1013.05 1012.68 1012.18 1011.52 1009.62 1009.79 1010.17 1010.02 1009.60 1009.24 1008.25 1006.41 1005.87 1005.04 1004.20 1003.99 1004.34 1004.31 1003.68 1004.34 1004.27 1004.80 1005.26 1005.12 1005.29 1005.36 1005.02 1005.27 1005.55 1006.18 1006.54 1006.73 1006.74
1018.66 1018.03 1017.48 1016.81 1016.25 1015.71 1015.19 1014.80 1014.44 1014.05 1013.63 1013.30 1013.15 1013.00 1011.99 1010.08 1008.55 1009.51 1009.83 1009.56 1009.12 1007.81 1007.25 1006.40 1005.50 1004.96 1004.41 1004.14 1004.50 1004.34 1003.74 1004.51 1004.74 1004.93 1005.09 1005.22 1005.33 1005.12 1004.96 1005.05 1005.55 1006.03 1006.27 1006.40 1006.52
1018.66 1017.97 1017.41 1016.83 1016.19 1015.66 1015.12 1014.59 1014.24 1013.88 1013.49 1013.16 1013.11 1013.18 1011.99 1009.43 1007.99 1008.48 1008.75 1008.30 1007.95 1007.34 1007.24 1006.68 1006.12 1006.07 1005.42 1004.88 1004.72 1004.45 1004.56 1004.54 1004.56 1004.66 1004.90 1005.17 1005.10 1005.10 1004.77 1004.74 1005.50 1005.78 1006.09 1006.24 1006.49
1018.83 1018.04 1017.27 1016.67 1016.10 1015.53 1014.94 1014.45 1014.00 1013.65 1013.31 1012.98 1012.95 1012.51 1010.66 1008.57 1007.86 1008.11 1008.31 1008.00 1008.17 1007.91 1007.27 1007.23 1007.21 1006.62 1005.63 1005.22 1004.74 1005.17 1004.95 1004.47 1004.05 1004.37 1004.86 1005.22 1005.00 1003.97 1004.10 1004.66 1005.25 1005.68 1005.93 1006.30 1006.67
1018.82 1018.20 1017.36 1016.63 1015.95 1015.36 1014.79 1014.22 1013.66 1013.33 1013.07 1012.82 1012.91 1011.99 1009.68 1007.80 1008.04 1007.95 1007.80 1007.72 1007.86 1007.82 1007.83 1007.74 1007.57 1007.01 1006.26 1005.74 1005.48 1005.23 1004.60 1003.71 1002.48 1003.81 1004.59 1005.65 1004.63 1004.01 1004.09 1004.51 1004.95 1005.28 1005.86 1006.33 1006.88
1018.75 1018.11 1017.50 1016.73 1015.99 1015.23 1014.65 1014.06 1013.47 1012.98 1012.79 1012.57 1012.33 1010.98 1008.57 1008.33 1008.00 1007.62 1007.83 1007.46 1007.42 1007.62 1007.55 1007.98 1007.65 1006.86 1006.11 1006.05 1005.18 1004.29 1003.78 1003.32 1002.76 1003.10 1003.86 1004.84 1004.45 1004.18 1004.09 1004.18 1004.61 1005.15 1005.78 1006.45 1007.16
1019.11 1018.17 1017.38 1016.71 1016.02 1015.33 1014.46 1014.12 1013.31 1013.17 1012.51 1011.42 1010.71 1010.04 1007.84 1007.21 1007.30 1007.80 1007.74 1008.01 1007.72 1007.42 1007.21 1007.34 1006.81 1006.41 1005.86 1005.41 1004.41 1004.11 1003.79 1003.15 1003.21 1003.42 1003.57 1004.07 1003.90 1003.68 1003.80 1003.90 1004.39 1004.92 1005.73 1006.65 1007.42
1019.28 1018.44 1017.42 1016.54 1015.81 1015.39 1014.05 1013.17 1013.17 1012.21 1011.03 1009.29 1007.89 1007.58 1006.84 1007.25 1007.87 1007.67 1007.43 1007.74 1007.65 1007.46 1006.73 1005.93 1005.97 1005.24 1004.68 1004.48 1005.03 1005.41 1005.18 1004.63 1004.29 1004.16 1003.98 1003.81 1003.81 1003.70 1003.55 1003.64 1004.01 1004.71 1005.80 1006.77 1007.51
1019.48 1018.51 1017.46 1016.41 1015.52 1014.86 1014.91 1011.98 1010.16 1010.19 1008.98 1007.82 1007.37 1006.73 1006.30 1006.62 1007.05 1007.13 1007.69 1007.77 1007.04 1006.79 1005.92 1005.88 1005.31 1004.95 1005.05 1005.66 1005.88 1006.04 1005.76 1005.09 1004.70 1004.21 1004.42 1004.21 1003.48 1003.24 1002.86 1002.98 1003.46 1004.57 1005.75 1006.62 1007.36
1019.46 1018.55 1017.52 1016.15 1014.83 1013.90 1012.40 1010.62 1010.12 1009.72 1008.78 1006.51 1005.57 1005.41 1005.78 1006.76 1006.78 1006.34 1007.22 1007.22 1006.90 1006.48 1005.83 1005.15 1004.39 1005.15 1005.68 1005.86 1006.09 1006.03 1005.98 1005.51 1005.15 1005.14 1005.07 1004.14 1003.13 1001.95 1001.14 1002.34 1003.60 1004.87 1005.81 1006.50 1007.08
1019.35 1018.47 1017.67 1016.58 1014.54 1012.37 1010.55 1010.26 1009.67 1009.66 1008.23 1004.53 1003.81 1003.91 1004.95 1005.89 1006.21 1006.20 1006.95 1007.57 1007.03 1006.27 1005.52 1004.60 1004.42 1004.82 1005.65 1005.86 1006.13 1005.77 1005.76 1006.04 1006.26 1006.15 1004.87 1003.65 1002.28 1001.69 1001.49 1002.38 1003.35 1004.31 1005.08 1005.84 1006.74
1019.42 1018.28 1017.58 1017.30 1014.93 1012.15 1010.56 1010.13 1010.09 1009.90 1007.15 1003.35 1003.58 1003.99 1004.41 1005.41 1005.85 1006.30 1007.08 1007.63 1007.12 1006.22 1006.34 1005.03 1004.52 1005.17 1005.61 1005.59 1005.83 1005.83 1006.39 1006.81 1006.84 1006.30 1005.39 1003.94 1002.53 1000.54 1000.12 1001.36 1002.72 1003.19 1004.17 1005.58 1006.59
1019.12 1018.16 1017.79 1014.55 1014.10 1011.87 1010.50 1010.53 1010.53 1009.36 1005.81 1003.45 1003.95 1004.59 1004.86 1005.04 1005.40 1006.17 1007.30 1007.73 1007.09 1006.57 1005.86 1005.32 1005.03 1005.57 1005.89 1005.88 1006.26 1006.92 1007.30 1007.12 1006.32 1005.84 1004.51 1002.64 1001.86 999.81 999.65 1000.47 1001.71 1003.15 1004.46 1005.62 1006.57
1018.78 1017.45 1017.45 1015.48 1012.62 1011.12 1010.68 1010.65 1010.03 1007.77 1004.31 1003.41 1003.66 1004.31 1004.60 1004.66 1005.15 1005.41 1006.21 1006.64 1006.62 1006.27 1005.34 1004.75 1004.78 1005.20 1006.21 1006.30 1006.52 1007.01 1007.42 1006.71 1005.14 1004.47 1003.24 1001.64 1000.98 999.86 999.96 1000.62 1001.93 1003.60 1004.95 1005.84 1006.38
1018.74 1016.84 1014.38 1013.06 1012.18 1011.60 1011.28 1011.01 1009.26 1006.59 1004.76 1003.46 1003.56 1003.96 1004.18 1004.27 1004.33 1004.72 1005.39 1005.65 1005.53 1005.57 1005.03 1004.33 1003.51 1004.20 1005.49 1006.33 1005.83 1006.03 1006.68 1006.93 1006.30 1004.70 1003.02 1002.02 1000.66 999.74 1000.68 1001.55 1003.05 1004.36 1005.22 1005.71 1005.89
1018.31 1014.69 1012.81 1011.18 1011.03 1011.62 1011.48 1010.10 1008.11 1006.74 1005.82 1004.62 1003.53 1003.74 1004.14 1004.08 1004.28 1004.04 1004.29 1004.74 1005.04 1004.74 1005.51 1004.41 1003.51 1003.78 1005.12 1005.98 1006.68 1005.93 1006.86 1007.28 1007.26 1006.70 1005.41 1003.10 1000.98 1000.29 1001.75 1002.75 1003.52 1004.00 1004.60 1005.15 1005.73
1018.79 1015.01 1011.72 1011.26 1011.72 1011.92 1011.40 1009.21 1008.06 1007.05 1006.05 1005.18 1003.97 1003.87 1003.65 1003.78 1003.62 1003.70 1004.27 1004.20 1004.21 1004.48 1005.07 1005.68 1005.42 1004.89 1005.64 1006.61 1006.60 1007.01 1007.20 1007.74 1008.23 1007.27 1005.02 1002.10 1001.03 1000.78 1001.89 1002.43 1003.18 1004.02 1004.49 1005.10 1005.50
1018.24 1014.57 1011.59 1011.76 1011.86 1011.81 1010.59 1009.05 1008.11 1007.10 1006.45 1005.97 1004.91 1004.45 1004.13 1004.13 1003.89 1003.25 1003.18 1003.80 1003.64 1004.59 1005.94 1006.75 1007.05 1005.43 1005.41 1006.31 1005.97 1006.84 1007.30 1007.83 1007.99 1007.74 1006.31 1004.36 1002.17 1001.51 1002.25 1002.82 1003.52 1003.90 1004.28 1004.83 1005.32
1017.83 1014.89 1011.92 1012.36 1012.38 1011.16 1010.03 1009.12 1008.33 1007.07 1006.69 1005.82 1005.24 1004.64 1004.53 1004.82 1004.56 1004.12 1003.29 1003.27 1003.84 1004.84 1006.33 1007.33 1007.36 1006.86 1005.70 1005.63 1005.75 1005.59 1006.03 1006.63 1007.59 1007.57 1006.94 1005.79 1003.58 1002.87 1003.04 1003.33 1003.57 1003.72 1003.91 1004.55 1005.27
1018.78 1015.71 1012.94 1012.24 1011.64 1010.86 1010.09 1009.12 1008.38 1007.41 1006.52 1005.94 1005.27 1005.08 1005.16 1005.22 1005.38 1005.14 1004.35 1003.38 1003.74 1004.92 1006.25 1007.09 1007.89 1007.47 1006.10 1005.71 1005.39 1005.73 1006.05 1006.40 1006.58 1007.26 1006.86 1006.66 1004.03 1003.23 1003.14 1003.22 1003.13 1003.03 1003.43 1004.17 1004.86
1019.74 1015.98 1013.83 1012.39 1011.80 1011.45 1010.78 1009.83 1009.09 1008.36 1007.45 1006.51 1005.94 1005.86 1006.17 1005.74 1005.83 1005.46 1004.96 1004.15 1004.55 1005.40 1006.59 1007.68 1007.89 1007.28 1006.01 1004.83 1005.09 1005.09 1005.25 1005.53 1005.97 1006.18 1006.14 1005.01 1004.11 1003.58 1003.06 1002.81 1002.61 1002.62 1003.35 1004.00 1004.77
1019.89 1016.90 1015.58 1014.24 1013.58 1012.99 1012.47 1011.70 1010.74 1009.76 1009.09 1007.74 1007.13 1008.58 1007.79 1008.33 1006.84 1006.23 1005.78 1004.77 1004.60 1005.70 1006.59 1007.78 1008.11 1007.90 1006.88 1005.80 1005.28 1004.79 1004.43 1004.35 1004.29 1004.47 1004.33 1003.93 1003.51 1003.20 1002.54 1002.03 1002.44 1002.90 1003.44 1004.22 1005.12
1020.46 1018.14 1017.09 1016.03 1015.74 1014.80 1013.71 1012.42 1011.56 1010.38 1009.88 1008.88 1008.81 1010.01 1010.58 1009.97 1010.51 1010.12 1007.68 1005.71 1004.72 1005.63 1006.43 1007.44 1008.15 1008.20 1007.10 1006.15 1005.12 1004.10 1003.54 1003.26 1003.13 1003.03 1002.65 1002.37 1001.53 1001.81 1001.61 1002.20 1002.70 1003.21 1004.07 1004.97 1005.59
1020.90 1019.68 1018.72 1017.27 1016.45 1015.51 1013.94 1012.62 1011.69 1011.24 1010.48 1009.90 1009.78 1010.66 1011.53 1011.66 1011.36 1011.06 1009.38 1007.62 1005.39 1005.23 1005.51 1006.60 1007.66 1008.26 1007.25 1006.52 1005.08 1003.27 1002.47 1001.98 1001.68 1001.83 1001.78 1001.30 1001.14 1001.37 1001.86 1002.61 1003.23 1004.13 1005.09 1005.61 1006.48
Wind_Speed
20 18 16 14 13 13 13 13 12 11 11 12 13 12 12 14 17 7 5 7 8 13 13 15 11 9 9 12 4 8 7 11 8 16 14 13 8 7 6 6 4 2 5 13 12
22 20 18 16 15 13 12 13 12 11 11 12 12 12 11 12 13 3 1 6 11 10 13 8 9 5 12 6 4 8 8 8 8 10 10 8 7 6 4 7 7 4 9 9 9
23 21 20 18 16 14 15 13 13 12 11 12 12 12 11 12 14 9 3 5 12 14 18 10 7 11 11 6 4 4 10 8 7 9 6 7 7 7 8 7 7 7 7 9 10
24 24 22 19 18 15 14 14 13 12 11 11 11 13 14 9 1 7 6 9 14 14 18 8 6 11 8 6 3 8 5 3 6 3 4 6 7 10 8 6 4 3 5 7 8
25 25 23 20 18 16 14 14 13 12 11 10 9 9 10 10 5 10 9 13 13 14 6 6 9 5 9 2 2 10 7 2 7 6 7 5 10 11 10 8 1 3 6 8 8
23 23 24 20 18 16 14 13 12 11 11 10 7 7 9 15 10 8 8 9 5 8 3 9 6 10 11 6 6 9 8 10 10 9 6 9 12 11 11 3 2 5 8 8 8
23 22 22 21 19 17 15 13 12 11 11 10 6 7 14 7 0 9 8 2 2 5 10 4 8 10 10 11 7 7 12 13 15 12 5 6 14 13 11 2 7 8 7 7 6
24 23 23 22 21 18 16 15 11 9 10 9 5 9 10 6 6 5 10 8 6 4 5 5 10 11 8 11 8 13 14 13 10 10 6 3 13 11 4 7 10 9 6 4 7
26 25 23 22 22 19 17 15 12 8 8 9 8 13 15 5 8 6 3 8 4 6 6 6 10 9 10 9 12 14 10 14 9 12 5 10 12 14 15 10 9 9 6 3 3
25 26 25 24 23 20 19 10 8 8 8 11 11 12 13 8 8 3 5 5 5 7 11 10 8 9 11 11 11 9 8 12 9 9 8 15 19 17 13 12 12 8 3 2 5
25 25 26 26 25 20 15 6 7 8 14 15 7 13 2 2 1 9 6 8 11 10 11 15 8 11 16 5 7 9 11 14 12 13 16 15 18 18 17 16 12 9 6 3 4
27 27 27 27 25 23 8 9 10 10 12 19 22 21 12 3 8 9 4 8 14 13 12 7 15 17 4 1 6 9 13 14 15 14 9 16 21 21 18 13 12 9 7 6 5
26 26 27 29 29 10 12 11 9 12 10 19 23 21 16 11 13 14 10 11 13 13 15 16 12 7 2 7 10 12 14 15 14 14 18 23 22 23 22 9 9 9 9 6 5
25 26 26 29 5 14 11 5 9 6 8 16 15 15 15 15 16 18 5 8 12 15 15 12 13 9 9 11 11 15 9 7 11 14 14 11 15 18 9 15 13 16 15 10 2
26 27 24 14 10 10 11 8 11 4 8 8 12 6 10 15 5 10 7 9 14 16 6 8 10 8 13 13 9 10 10 11 15 17 18 21 13 14 15 17 17 20 12 4 2
28 27 23 8 9 15 10 8 6 7 10 7 10 9 13 18 19 12 9 11 11 12 17 18 10 4 9 13 3 8 11 18 21 17 15 21 16 11 5 11 10 10 6 2 6
32 33 19 10 8 16 11 7 8 10 5 6 7 10 15 17 18 17 13 14 11 9 15 19 20 15 8 10 12 13 9 6 6 11 13 10 6 12 7 11 9 8 3 3 7
32 33 11 10 11 10 6 10 16 13 17 14 6 8 15 15 20 19 16 16 19 21 14 15 15 21 15 14 7 11 10 6 5 5 11 18 7 3 12 13 13 5 2 7 10
34 10 10 9 10 4 7 13 16 16 20 24 19 11 16 17 20 18 17 19 19 17 13 10 17 14 11 8 6 8 8 2 7 9 12 11 11 9 14 10 7 5 3 10 12
12 10 7 6 5 5 10 20 24 25 26 23 26 19 19 18 21 22 17 14 21 21 10 5 9 11 13 6 12 9 5 4 4 6 7 7 9 6 11 5 4 4 9 10 11
6 8 5 7 2 8 13 21 24 23 24 24 29 27 24 24 25 23 19 19 9 8 6 9 5 6 12 12 14 10 11 8 6 7 5 6 4 6 10 8 3 9 12 13 12
7 7 10 15 11 9 15 23 23 27 25 28 28 26 21 21 22 25 26 20 12 11 14 13 6 10 15 14 18 16 15 15 7 8 9 11 14 6 2 1 7 11 7 6 9
8 11 11 10 10 12 17 25 26 27 27 27 28 27 23 20 19 21 25 18 10 15 12 8 6 7 11 15 10 9 14 14 12 9 14 10 7 5 7 9 13 15 9 10 12
7 8 12 10 12 19 20 19 23 23 30 26 25 20 24 21 21 17 26 16 9 13 10 1 9 11 8 10 3 13 15 15 16 12 13 20 24 22 19 18 19 11 11 12 11
7 11 15 12 14 19 22 25 25 27 27 26 22 22 22 12 22 24 21 19 14 12 10 8 12 16 20 22 18 17 19 19 20 20 20 20 25 22 20 17 11 9 12 13 14
7 11 11 15 19 22 19 23 27 28 26 27 21 18 21 17 18 14 24 19 14 16 17 12 12 15 20 20 21 22 21 22 23 24 26 25 25 19 14 14 14 14 14 14 13
10 14 11 12 17 19 18 25 26 25 25 27 20 10 16 21 18 24 27 29 15 14 19 18 13 11 16 17 20 20 20 21 19 20 18 20 18 12 13 14 13 13 13 11 12
Wind_Direction
3 0 355 350 345 342 340 338 337 332 326 321 322 322 325 329 307 230 29 351 317 324 320 280 231 228 231 250 241 270 261 250 360 356 75 59 31 18 15 288 332 287 20 20 6
2 358 355 350 344 342 340 335 334 331 327 322 320 318 327 329 294 81 102 315 304 301 299 244 231 223 231 240 226 250 247 21 40 20 15 23 24 331 345 319 280 38 10 358 2
0 358 354 349 345 340 338 336 332 329 326 320 317 317 325 312 275 84 163 285 285 292 278 287 283 260 253 254 156 243 259 37 61 38 359 346 309 15 291 288 4 347 325 338 339
358 358 353 349 343 339 334 332 328 321 317 313 316 323 321 304 331 83 182 238 256 268 285 261 233 249 268 216 165 270 228 333 324 50 299 291 346 279 280 302 346 342 301 310 304
357 355 354 347 342 335 329 327 323 315 307 304 312 332 318 263 92 135 206 232 256 262 303 316 301 295 263 225 279 246 265 210 253 261 271 316 277 295 286 283 67 292 295 300 304
351 352 352 344 339 333 324 320 315 306 299 296 307 315 276 280 111 155 214 247 331 325 7 327 351 345 298 278 286 347 309 288 281 267 278 274 292 293 271 222 261 301 304 307 337
347 346 344 343 338 332 323 316 309 297 289 289 302 293 286 283 277 155 234 333 329 337 315 18 320 290 318 270 244 283 277 266 242 223 244 3 283 250 226 71 301 282 306 324 310
345 345 342 341 337 332 322 315 301 286 280 276 292 284 269 91 344 209 246 245 193 282 311 298 311 286 281 300 275 257 253 263 236 166 189 137 273 303 131 289 284 292 314 292 31
342 343 342 341 336 330 323 311 286 271 258 280 268 219 289 125 213 232 263 276 342 256 216 292 269 270 267 250 254 217 267 220 175 190 200 207 259 294 282 282 277 287 277 359 343
342 339 339 339 337 330 319 286 311 292 233 251 251 278 228 230 144 268 253 268 275 295 268 228 234 236 226 230 249 344 245 283 290 285 229 242 255 262 281 275 271 255 243 295 333
341 337 335 336 332 333 323 233 213 204 236 238 203 236 111 128 92 234 202 240 252 253 266 202 265 253 255 226 9 318 291 278 280 277 269 276 281 272 276 265 248 222 206 244 291
340 334 331 330 326 320 278 261 359 318 293 230 246 265 255 170 247 216 170 238 231 241 277 224 250 250 59 351 295 295 279 277 271 266 275 271 273 279 267 253 234 198 209 231 274
334 331 329 326 320 287 243 304 326 303 275 270 239 230 228 205 240 263 176 249 258 262 254 254 279 83 217 268 271 247 257 264 289 318 292 268 263 264 234 198 177 195 221 221 264
332 330 328 330 298 327 289 5 295 2 276 258 206 209 210 199 245 238 155 276 257 253 260 264 259 207 237 252 263 266 252 310 283 284 277 322 290 292 193 189 202 208 209 214 327
329 325 327 320 301 302 359 329 338 266 285 57 145 127 203 179 119 192 187 245 256 268 195 266 221 202 234 247 277 268 317 300 281 276 277 268 265 260 252 185 202 224 182 110 287
327 320 332 300 235 256 293 332 267 240 249 187 136 190 212 210 219 138 193 220 282 267 257 258 278 273 280 273 249 270 284 274 254 247 251 258 237 273 179 201 156 102 121 99 345
324 315 314 291 274 325 330 281 257 236 244 226 190 199 219 222 225 227 217 217 235 223 230 233 232 223 224 247 233 226 253 285 285 211 235 249 271 259 289 181 122 105 102 6 321
319 308 273 241 267 290 292 257 248 267 250 274 187 235 234 237 234 218 227 252 235 243 275 279 211 199 171 225 295 205 240 239 260 265 318 323 257 262 78 84 95 113 172 244 339
315 304 288 269 213 273 255 240 244 254 267 277 286 230 266 237 259 256 238 241 257 232 229 305 240 154 154 190 208 222 221 273 320 295 260 241 267 118 117 124 164 209 356 337 325
314 300 276 31 37 278 255 254 271 282 290 282 283 283 274 254 241 235 249 260 238 260 193 284 269 194 188 213 229 234 11 209 195 252 261 267 307 307 146 176 89 345 317 338 316
266 306 78 334 274 263 252 262 271 273 268 266 278 280 275 272 280 286 223 258 231 170 158 250 214 254 161 203 226 184 228 224 250 262 267 303 271 115 1 353 19 310 317 318 345
301 301 326 329 294 274 267 274 275 271 269 278 284 279 275 278 279 283 282 240 193 187 201 224 235 253 223 220 219 237 221 210 207 233 227 265 276 322 7 12 282 271 281 349 346
299 296 276 259 269 273 280 283 288 285 279 275 265 260 269 263 266 274 282 279 261 179 190 185 235 238 247 249 182 227 245 248 255 238 248 260 256 158 215 244 276 313 340 334 333
287 301 308 307 284 275 279 294 306 302 304 286 297 299 291 262 264 252 267 261 239 191 135 88 237 226 250 168 236 219 220 227 231 239 245 243 268 279 292 300 290 319 347 326 351
259 292 316 298 297 302 305 304 302 295 290 303 299 332 303 321 276 255 254 249 196 177 177 192 244 255 255 269 271 259 256 253 244 239 234 257 262 275 272 284 342 332 329 347 341
292 316 319 301 300 288 285 279 283 284 281 278 290 307 314 284 271 311 302 257 250 193 202 180 237 251 259 259 259 259 258 257 256 257 259 265 269 276 291 344 331 331 354 341 339
313 314 306 287 273 276 280 282 284 287 285 288 281 296 291 299 336 312 291 285 249 273 198 202 204 239 263 272 271 261 251 256 259 251 260 260 274 313 332 325 337 352 336 341 343